TimePDT,TemperatureF,Dew PointF,Humidity,Sea Level PressureIn,VisibilityMPH,Wind Direction,Wind SpeedMPH,Gust SpeedMPH,PrecipitationIn,Events,Conditions,WindDirDegrees,DateUTC
12:53 AM,59.0,48.9,69,29.87,10.0,West,5.8,-,N/A,,Clear,260,2013-06-23 07:53:00
1:53 AM,57.0,50.0,77,29.86,10.0,West,6.9,-,N/A,,Clear,280,2013-06-23 08:53:00
2:53 AM,57.9,50.0,75,29.84,10.0,West,6.9,-,N/A,,Clear,280,2013-06-23 09:53:00
3:53 AM,59.0,51.1,75,29.83,10.0,Calm,Calm,-,N/A,,Overcast,0,2013-06-23 10:53:00
4:53 AM,59.0,54.0,83,29.83,10.0,West,3.5,-,0.00,,Overcast,280,2013-06-23 11:53:00
5:53 AM,60.1,54.0,80,29.83,10.0,WNW,3.5,-,0.01,Rain,Light Rain,300,2013-06-23 12:53:00
6:53 AM,62.1,54.0,75,29.82,10.0,West,3.5,-,0.00,Rain,Light Rain,270,2013-06-23 13:53:00
7:53 AM,63.0,55.0,75,29.81,10.0,WSW,3.5,-,0.00,,Overcast,250,2013-06-23 14:53:00
8:53 AM,66.0,54.0,65,29.80,10.0,Calm,Calm,-,0.00,,Overcast,0,2013-06-23 15:53:00
9:53 AM,68.0,54.0,61,29.79,10.0,Calm,Calm,-,N/A,,Overcast,0,2013-06-23 16:53:00
10:53 AM,71.1,52.0,51,29.78,10.0,West,3.5,-,N/A,,Overcast,270,2013-06-23 17:53:00
11:53 AM,72.0,50.0,46,29.77,10.0,West,5.8,-,N/A,,Overcast,260,2013-06-23 18:53:00
12:53 PM,70.0,52.0,53,29.77,10.0,WSW,5.8,-,0.00,Rain,Light Rain,250,2013-06-23 19:53:00
1:53 PM,70.0,55.0,59,29.75,10.0,WNW,4.6,-,0.03,Rain,Light Rain,290,2013-06-23 20:53:00
2:53 PM,72.0,53.1,51,29.73,10.0,NW,6.9,-,0.00,,Overcast,320,2013-06-23 21:53:00
3:53 PM,73.0,51.1,46,29.71,10.0,NW,4.6,-,N/A,,Mostly Cloudy,310,2013-06-23 22:53:00
4:53 PM,73.0,50.0,44,29.69,10.0,NW,4.6,-,0.00,,Overcast,320,2013-06-23 23:53:00
5:53 PM,72.0,52.0,49,29.68,10.0,West,5.8,-,0.00,Rain,Light Rain,280,2013-06-24 00:53:00
6:53 PM,66.0,57.0,73,29.67,10.0,WSW,5.8,-,0.01,Rain,Light Rain,250,2013-06-24 01:53:00
7:53 PM,64.9,57.9,78,29.67,10.0,WSW,5.8,-,0.01,Rain,Light Rain,240,2013-06-24 02:53:00
8:53 PM,63.0,57.0,81,29.66,9.0,WSW,3.5,-,0.03,Rain,Light Rain,250,2013-06-24 03:53:00
9:53 PM,62.1,59.0,90,29.66,10.0,Calm,Calm,-,0.01,Rain,Light Rain,0,2013-06-24 04:53:00
10:53 PM,61.0,57.9,90,29.66,10.0,WSW,3.5,-,0.00,,Mostly Cloudy,240,2013-06-24 05:53:00
11:53 PM,60.1,57.0,90,29.65,10.0,Calm,Calm,-,N/A,,Partly Cloudy,0,2013-06-24 06:53:00